{"data":{"norad_id":49725,"intl_designator":"2021-115B","name":"STARLINK-3218","alt_names":[],"object_type":"PAYLOAD","status":"ACTIVE","operator":null,"country":"US","launch_date":"2021-12-02","launch_site_code":"AFETR","launch_vehicle":null,"mission":null,"orbit_class":"UNKNOWN","rcs_meters":null,"size_class":null,"mass_kg":null,"dimensions":null,"purposes":["comms"],"wikipedia_slug":null,"has_3d_model":false,"image_url":null,"decayed_at":null,"tle_current":{"epoch":"2026-05-25T01:11:56.328000Z","epoch_age_seconds":71065,"freshness":"FRESH","line1":"1 49725U 21115B   26145.04995750  .00001032  00000+0  82939-4 0  9994","line2":"2 49725  53.2126 166.4320 0001117  79.2536 280.8582 15.08838485247064","mean_motion":15.08838485,"eccentricity":0.0001117,"inclination_deg":53.2126,"raan_deg":166.432,"arg_perigee_deg":79.2536,"mean_anomaly_deg":280.8582,"bstar":8.2939e-5,"rev_number":24706,"period_min":95.437650505051,"perigee_km":538.97529196019,"apogee_km":540.5207474736,"semimajor_km":6917.8850197169,"source":"CELESTRAK","updated_at":"2026-05-25T13:38:16.831027Z"}}}